sat.trackr.live / text

‹ back to catalog

COSMOS 2584 (704K)

NORAD 63130 · 2025-042A

PAYLOAD INACTIVE UNKNOWN

§ Identity

Operator
Country
CIS
Launch date
2025-03-02
Launch site
PLMSC
Launch vehicle
Mass (kg)
RCS (m²)

Purposes: nav

External: N2YO · Heavens-Above · Gunter

§ Orbital elements

Epoch: 2026-05-24T04:59:41.859168Z

Period
675.73 min
Inclination
65.0715°
Eccentricity
0.0006049
Mean motion
2.13103805 rev/d
Perigee alt
19,114.3 km
Apogee alt
19,145.2 km
Semi-major
25,507.9 km
B*
0.0000e+0
RAAN
73.6167°
Arg perigee
232.3879°
Mean anomaly
127.5503°
Rev number
953

§ Raw data

COSMOS 2584 (704K)1 63130U 25042A   26144.20812337 -.00000031  00000+0  00000+0 0  99922 63130  65.0715  73.6167 0006049 232.3879 127.5503  2.13103805  9535

JSON: /api/v1/satellites/63130 · /tle

For live sub-satellite position, see the globe view (requires WebGL).

§ Visibility from observer

Set your observer location to see the next 7 days of passes ≥ 10°. The values pass through the URL so the page stays shareable.

No JS? Fill the form by hand. The geolocation button needs JavaScript.